Location: D�rnast
(49.6426°N, 11.9755°E)
Time: 01:19:35
(UTC+00:00)

N. Korean satellite - Pass Details

Date: 06 December 2021
Orbit: 446 x 492 km, 97.3° (Epoch: 16 January)

Event Time Altitude Azimuth Distance (km) Brightness Sun altitude
Rises 15:56:57 0° 183° (S) 2,524 10.6 -7.0°
Reaches altitude 10° 15:59:06 10° 191° (S) 1,641 9.8 -7.3°
Maximum altitude 16:02:26 39° 262° (W) 716 8.1 -7.8°
Drops below altitude 10° 16:05:45 10° 333° (NNW) 1,628 9.3 -8.3°
Sets 16:07:52 0° 341° (NNW) 2,500 10.1 -8.6°
